This demonstration page uses our WeatherBlox Daily Observations layout. Learn more.

Left ArrowRight Arrow

Hourly Observations for May 18, 2017

Temp ( °F °C ) Dew Point ( °F °C ) Humidity (%) Winds ( mph kmh ) Pressure ( in mb ) Visibility ( mi km ) Precip ( " mm )
12:52 am 00:52 Clear 68 20 62 16.7 81 81 SSE 10 17 29.75 1008 10 16 0.00 0.00
1:52 am 01:52 Clear 67 19.4 62 16.7 84 84 SSE 12 19 29.75 1008 10 16 0.00 0.00
2:52 am 02:52 Clear 67 19.4 63 17.2 87 87 SSE 10 17 29.76 1008 10 16 0.00 0.00
3:52 am 03:52 Clear 67 19.4 63 17.2 87 87 S 10 17 29.76 1008 10 16 0.00 0.00
4:52 am 04:52 Clear 66 18.9 63 17.2 90 90 S 9 15 29.76 1008 10 16 0.00 0.00
5:52 am 05:52 Clear 66 18.9 64 17.8 93 93 S 9 15 29.77 1008 8 13 0.00 0.00
6:52 am 06:52 Sunny 67 19.4 65 18.3 93 93 SSE 9 15 29.79 1009 7 11 0.00 0.00
7:52 am 07:52 Sunny 70 21.1 66 18.9 87 87 SSE 12 19 29.80 1009 9 14 0.00 0.00
8:52 am 08:52 Sunny 74 23.3 67 19.4 79 79 S 15 24 29.82 1010 10 16 0.00 0.00
9:52 am 09:52 Mostly Sunny 77 25 68 20 74 74 S 13 20 29.84 1010 10 16 0.00 0.00
10:29 am 10:29 Mostly Cloudy 77 25 67 19.4 71 71 SW 12 19 29.83 1010 10 16 0.00 0.00
10:52 am 10:52 Mostly Cloudy 79 26.1 68 20 69 69 SSW 12 19 29.85 1011 10 16 0.00 0.00
11:06 am 11:06 Partly Cloudy 79 26.1 68 20 69 69 SSW 14 22 29.83 1010 10 16 0.00 0.00
11:52 am 11:52 Partly Cloudy 79 26.1 65 18.3 62 62 SW 12 19 29.85 1011 10 16 0.00 0.00
12:52 pm 12:52 Mostly Cloudy 81 27.2 66 18.9 61 61 SSW 8 13 29.84 1010 10 16 0.00 0.00
1:52 pm 13:52 Mostly Sunny 84 28.9 64 17.8 51 51 S 12 19 29.82 1010 10 16 0.00 0.00
2:52 pm 14:52 Mostly Sunny 86 30 63 17.2 46 46 SSE 14 22 29.81 1009 10 16 0.00 0.00
3:52 pm 15:52 Mostly Sunny 86 30 63 17.2 46 46 SSE 12 19 29.79 1009 10 16 0.00 0.00
4:52 pm 16:52 Partly Cloudy 85 29.4 64 17.8 50 50 SE 9 15 29.78 1008 10 16 0.00 0.00
5:52 pm 17:52 Mostly Cloudy 85 29.4 65 18.3 51 51 SE 15 24 29.75 1008 10 16 0.00 0.00
6:52 pm 18:52 Sunny 82 27.8 64 17.8 55 55 SSE 17 28 29.76 1008 10 16 0.00 0.00
7:52 pm 19:52 Sunny 80 26.7 65 18.3 60 60 SSE 10 17 29.77 1008 10 16 0.00 0.00
8:52 pm 20:52 Clear 78 25.6 65 18.3 64 64 SSE 13 20 29.77 1008 10 16 0.00 0.00
9:52 pm 21:52 Clear 77 25 66 18.9 69 69 SSE 14 22 29.80 1009 10 16 0.00 0.00
10:52 pm 22:52 Clear 76 24.4 68 20 77 77 SSE 14 22 29.83 1010 10 16 0.00 0.00
11:52 pm 23:52 Clear 76 24.4 68 20 77 77 SSE 10 17 29.81 1010 10 16 0.00 0.00

Powered by AerisWeather